| time (UTC) | temp C | wind direction | speed KPH | gust KPH | rain 1hr cm | rain 24hr cm | rain mn cm | humidity % | barometer mb |
| 20260503013050 | 12 | 0 | 0.0 | 0.0 | 0.00 | 0.23 | 0.00 | 95 | 1014.0 |
| 20260503012546 | 12 | 0 | 0.0 | 0.0 | 0.00 | 0.23 | 0.00 | 95 | 1014.2 |
| 20260503012046 | 12 | 0 | 0.0 | 0.0 | 0.00 | 0.23 | 0.00 | 95 | 1014.2 |
| 20260503011552 | 12 | 0 | 0.0 | 0.0 | 0.00 | 0.23 | 0.00 | 95 | 1014.1 |
| 20260503011046 | 12 | 0 | 0.0 | 0.0 | 0.00 | 0.23 | 0.00 | 95 | 1014.4 |
| 20260503010547 | 12 | 0 | 0.0 | 0.0 | 0.00 | 0.23 | 0.00 | 95 | 1014.2 |
| 20260503010052 | 12 | 0 | 0.0 | 0.0 | 0.00 | 0.23 | 0.00 | 95 | 1014.6 |
| 20260503005547 | 12 | 0 | 0.0 | 0.0 | 0.00 | 0.23 | 0.00 | 95 | 1014.4 |
| 20260503005047 | 12 | 0 | 0.0 | 0.0 | 0.00 | 0.23 | 0.00 | 95 | 1014.1 |
| 20260503004556 | 12 | 0 | 0.0 | 0.0 | 0.00 | 0.23 | 0.00 | 95 | 1014.2 |
| 20260503004047 | 12 | 0 | 0.0 | 0.0 | 0.00 | 0.23 | 0.00 | 95 | 1014.1 |
| 20260503003546 | 12 | 0 | 0.0 | 0.0 | 0.00 | 0.23 | 0.00 | 95 | 1014.2 |
| 20260503003100 | 12 | 0 | 0.0 | 0.0 | 0.00 | 0.23 | 0.00 | 95 | 1014.1 |
| 20260503002546 | 12 | 0 | 0.0 | 0.0 | 0.00 | 0.23 | 0.00 | 95 | 1014.3 |
| 20260503002047 | 13 | 0 | 0.0 | 0.0 | 0.00 | 0.23 | 0.00 | 95 | 1014.3 |
| 20260503001607 | 13 | 0 | 0.0 | 0.0 | 0.00 | 0.23 | 0.00 | 95 | 1014.3 |
| 20260503001045 | 13 | 0 | 0.0 | 0.0 | 0.00 | 0.23 | 0.00 | 95 | 1014.4 |
| 20260503000546 | 13 | 0 | 0.0 | 0.0 | 0.00 | 0.23 | 0.00 | 95 | 1014.5 |
| 20260503000053 | 13 | 0 | 0.0 | 0.0 | 0.00 | 0.23 | 0.00 | 95 | 1014.6 |
| 20260502235547 | 13 | 0 | 0.0 | 0.0 | 0.00 | 0.23 | 0.00 | 95 | 1014.7 |
| 20260502235047 | 13 | 0 | 0.0 | 0.0 | 0.00 | 0.23 | 0.00 | 95 | 1015.0 |
| 20260502234554 | 13 | 0 | 0.0 | 0.0 | 0.00 | 0.23 | 0.00 | 95 | 1014.9 |
| 20260502234044 | 13 | 0 | 0.0 | 0.0 | 0.00 | 0.23 | 0.00 | 95 | 1015.1 |
| 20260502233545 | 13 | 0 | 0.0 | 0.0 | 0.00 | 0.23 | 0.00 | 95 | 1015.1 |
| 20260502233057 | 13 | 0 | 0.0 | 0.0 | 0.00 | 0.23 | 0.00 | 95 | 1015.2 |
| 20260502232544 | 13 | 0 | 0.0 | 0.0 | 0.00 | 0.23 | 0.00 | 95 | 1015.2 |
| 20260502232047 | 13 | 0 | 0.0 | 0.0 | 0.00 | 0.23 | 0.00 | 95 | 1015.2 |
| 20260502231551 | 13 | 0 | 0.0 | 0.0 | 0.00 | 0.23 | 0.00 | 95 | 1015.3 |
| 20260502231047 | 13 | 0 | 0.0 | 0.0 | 0.00 | 0.23 | 0.00 | 95 | 1015.4 |
| 20260502230547 | 13 | 0 | 0.0 | 0.0 | 0.00 | 0.23 | 0.00 | 95 | 1015.4 |
| 20260502230055 | 13 | 0 | 0.0 | 0.0 | 0.00 | 0.23 | 0.00 | 94 | 1015.4 |
| 20260502225546 | 13 | 0 | 0.0 | 0.0 | 0.00 | 0.23 | 0.00 | 94 | 1015.4 |
| 20260502225045 | 13 | 0 | 0.0 | 0.0 | 0.00 | 0.23 | 0.00 | 94 | 1015.4 |
| 20260502224556 | 13 | 0 | 0.0 | 0.0 | 0.00 | 0.23 | 0.00 | 94 | 1015.4 |
| 20260502224046 | 13 | 0 | 0.0 | 0.0 | 0.00 | 0.23 | 0.00 | 94 | 1015.4 |
| 20260502223548 | 13 | 0 | 0.0 | 0.0 | 0.00 | 0.23 | 0.00 | 94 | 1015.4 |
| 20260502223056 | 13 | 0 | 0.0 | 0.0 | 0.00 | 0.23 | 0.00 | 94 | 1015.4 |
| 20260502222545 | 13 | 0 | 0.0 | 0.0 | 0.00 | 0.23 | 0.00 | 94 | 1015.5 |
| 20260502222048 | 13 | 0 | 0.0 | 0.0 | 0.00 | 0.23 | 0.00 | 94 | 1015.5 |
| 20260502221557 | 13 | 0 | 0.0 | 0.0 | 0.00 | 0.23 | 0.00 | 94 | 1015.5 |
| 20260502221044 | 14 | 0 | 0.0 | 0.0 | 0.00 | 0.23 | 0.00 | 94 | 1015.6 |
| 20260502220547 | 14 | 0 | 0.0 | 0.0 | 0.00 | 0.23 | 0.00 | 94 | 1015.6 |
| 20260502220057 | 14 | 0 | 0.0 | 0.0 | 0.00 | 0.23 | 0.00 | 94 | 1015.6 |
| 20260502215547 | 14 | 0 | 0.0 | 0.0 | 0.00 | 0.23 | 0.23 | 93 | 1015.8 |
| 20260502215044 | 14 | 0 | 0.0 | 0.0 | 0.00 | 0.23 | 0.23 | 93 | 1015.7 |
| 20260502214601 | 14 | 0 | 0.0 | 0.0 | 0.00 | 0.23 | 0.23 | 93 | 1015.9 |
| 20260502214046 | 15 | 0 | 0.0 | 0.0 | 0.00 | 0.23 | 0.23 | 93 | 1015.8 |
| 20260502213546 | 15 | 0 | 0.0 | 0.0 | 0.00 | 0.23 | 0.23 | 93 | 1015.9 |
| 20260502213100 | 15 | 0 | 0.0 | 0.0 | 0.00 | 0.23 | 0.23 | 93 | 1015.9 |
| 20260502212545 | 15 | 0 | 0.0 | 0.0 | 0.00 | 0.23 | 0.23 | 93 | 1016.0 |
| 20260502212045 | 15 | 0 | 0.0 | 0.0 | 0.03 | 0.23 | 0.23 | 93 | 1016.0 |
| 20260502211555 | 15 | 0 | 0.0 | 0.0 | 0.03 | 0.23 | 0.23 | 93 | 1016.2 |
| 20260502211045 | 15 | 0 | 0.0 | 0.0 | 0.03 | 0.23 | 0.23 | 93 | 1016.4 |
| 20260502210549 | 15 | 0 | 0.0 | 0.0 | 0.03 | 0.23 | 0.23 | 93 | 1016.5 |
| 20260502205546 | 15 | 0 | 0.0 | 0.0 | 0.10 | 0.23 | 0.23 | 92 | 1016.7 |
| 20260502205045 | 15 | 0 | 0.0 | 0.0 | 0.10 | 0.23 | 0.23 | 92 | 1016.9 |
| 20260502204559 | 15 | 0 | 0.0 | 0.0 | 0.08 | 0.20 | 0.20 | 92 | 1017.1 |
| 20260502204044 | 15 | 0 | 0.0 | 0.0 | 0.08 | 0.20 | 0.20 | 92 | 1017.0 |
| 20260502203546 | 15 | 0 | 0.0 | 0.0 | 0.08 | 0.20 | 0.20 | 92 | 1017.0 |
| 20260502203057 | 15 | 0 | 0.0 | 0.0 | 0.08 | 0.20 | 0.20 | 92 | 1017.1 |
| 20260502202545 | 15 | 0 | 0.0 | 0.0 | 0.08 | 0.20 | 0.20 | 92 | 1017.0 |
| 20260502202045 | 15 | 0 | 0.0 | 4.8 | 0.08 | 0.18 | 0.18 | 91 | 1017.1 |
| 20260502201611 | 15 | 0 | 0.0 | 9.7 | 0.08 | 0.18 | 0.18 | 91 | 1017.4 |
| 20260502201047 | 15 | 0 | 0.0 | 20.9 | 0.08 | 0.18 | 0.18 | 91 | 1017.1 |
| 20260502200546 | 15 | 0 | 0.0 | 20.9 | 0.08 | 0.18 | 0.18 | 92 | 1017.1 |
| 20260502200056 | 16 | 0 | 0.0 | 19.3 | 0.00 | 0.10 | 0.10 | 92 | 1017.3 |
| 20260502195545 | 16 | 0 | 3.2 | 19.3 | 0.00 | 0.10 | 0.10 | 92 | 1017.8 |
| 20260502195048 | 15 | 242 | 1.6 | 25.7 | 0.00 | 0.10 | 0.10 | 92 | 1017.6 |
| 20260502194559 | 16 | 242 | 3.2 | 25.7 | 0.00 | 0.10 | 0.10 | 91 | 1017.2 |
| 20260502194048 | 16 | 0 | 4.8 | 25.7 | 0.00 | 0.10 | 0.10 | 92 | 1017.0 |
| 20260502193545 | 16 | 0 | 0.0 | 0.0 | 0.00 | 0.10 | 0.10 | 92 | 1015.9 |
| 20260502193100 | 16 | 0 | 0.0 | 0.0 | 0.00 | 0.10 | 0.10 | 91 | 1015.6 |
| 20260502192546 | 16 | 0 | 0.0 | 0.0 | 0.00 | 0.10 | 0.10 | 91 | 1015.5 |
| 20260502192046 | 16 | 0 | 0.0 | 0.0 | 0.00 | 0.10 | 0.10 | 91 | 1015.5 |
| 20260502191601 | 16 | 0 | 0.0 | 0.0 | 0.05 | 0.10 | 0.10 | 91 | 1015.6 |
| 20260502191047 | 16 | 0 | 0.0 | 0.0 | 0.10 | 0.10 | 0.10 | 90 | 1015.7 |
| 20260502190548 | 16 | 0 | 0.0 | 0.0 | 0.10 | 0.10 | 0.10 | 90 | 1015.7 |
| 20260502190057 | 16 | 0 | 0.0 | 0.0 | 0.10 | 0.10 | 0.10 | 89 | 1015.7 |
| 20260502185546 | 16 | 0 | 0.0 | 0.0 | 0.10 | 0.10 | 0.10 | 89 | 1015.6 |
| 20260502185046 | 16 | 0 | 0.0 | 0.0 | 0.10 | 0.10 | 0.10 | 88 | 1015.7 |
| 20260502184604 | 17 | 0 | 0.0 | 0.0 | 0.10 | 0.10 | 0.10 | 87 | 1015.7 |
| 20260502184046 | 17 | 0 | 0.0 | 0.0 | 0.10 | 0.10 | 0.10 | 85 | 1015.9 |
| 20260502183544 | 17 | 0 | 0.0 | 0.0 | 0.10 | 0.10 | 0.10 | 85 | 1015.9 |
| 20260502183103 | 17 | 0 | 0.0 | 0.0 | 0.10 | 0.10 | 0.10 | 82 | 1016.3 |
| 20260502182547 | 18 | 0 | 0.0 | 3.2 | 0.08 | 0.08 | 0.08 | 80 | 1016.5 |
| 20260502182045 | 18 | 0 | 0.0 | 3.2 | 0.08 | 0.08 | 0.08 | 76 | 1015.9 |
| 20260502181600 | 18 | 0 | 0.0 | 3.2 | 0.05 | 0.05 | 0.05 | 72 | 1016.3 |
| 20260502181051 | 18 | 0 | 0.0 | 0.0 | 0.00 | 0.00 | 0.00 | 72 | 1015.6 |
| 20260502180545 | 19 | 0 | 0.0 | 0.0 | 0.00 | 0.00 | 0.00 | 71 | 1015.4 |
| 20260502164049 | 20 | 0 | 0.0 | 0.0 | 0.00 | 0.00 | 0.00 | 68 | 1016.1 |
| 20260502163546 | 20 | 0 | 0.0 | 0.0 | 0.00 | 0.00 | 0.00 | 69 | 1016.4 |
| 20260502163056 | 20 | 0 | 0.0 | 0.0 | 0.00 | 0.00 | 0.00 | 68 | 1016.6 |
| 20260502162546 | 20 | 0 | 0.0 | 0.0 | 0.00 | 0.00 | 0.00 | 69 | 1016.7 |
| 20260502162044 | 20 | 0 | 0.0 | 0.0 | 0.00 | 0.00 | 0.00 | 69 | 1016.7 |
| 20260502161555 | 20 | 0 | 0.0 | 0.0 | 0.00 | 0.00 | 0.00 | 68 | 1016.7 |
| 20260502161047 | 20 | 0 | 0.0 | 0.0 | 0.00 | 0.00 | 0.00 | 67 | 1016.8 |
| 20260502160546 | 20 | 0 | 0.0 | 0.0 | 0.00 | 0.00 | 0.00 | 67 | 1016.7 |
| 20260502152048 | 20 | 0 | 0.0 | 0.0 | 0.00 | 0.00 | 0.00 | 67 | 1017.0 |
| 20260502151617 | 20 | 0 | 0.0 | 0.0 | 0.00 | 0.00 | 0.00 | 65 | 1017.0 |
| 20260502151044 | 20 | 0 | 0.0 | 0.0 | 0.00 | 0.00 | 0.00 | 65 | 1017.3 |
| 20260502150547 | 20 | 0 | 0.0 | 0.0 | 0.00 | 0.00 | 0.00 | 64 | 1017.3 |
| 20260502150106 | 20 | 0 | 0.0 | 0.0 | 0.00 | 0.00 | 0.00 | 62 | 1017.4 |
| 20260502130545 | 25 | 157 | 1.6 | 17.7 | 0.00 | 0.00 | 0.00 | 42 | 1018.0 |
| 20260502123545 | 25 | 0 | 0.0 | 19.3 | 0.00 | 0.00 | 0.00 | 42 | 1018.3 |
| 20260502123101 | 25 | 0 | 1.6 | 19.3 | 0.00 | 0.00 | 0.00 | 42 | 1018.4 |
| 20260502122545 | 25 | 244 | 6.4 | 19.3 | 0.00 | 0.00 | 0.00 | 42 | 1018.4 |
| 20260502122046 | 25 | 228 | 1.6 | 16.1 | 0.00 | 0.00 | 0.00 | 43 | 1018.5 |
| 20260502121551 | 25 | 220 | 1.6 | 16.1 | 0.00 | 0.00 | 0.00 | 43 | 1018.5 |
| 20260502121046 | 25 | 255 | 1.6 | 17.7 | 0.00 | 0.00 | 0.00 | 42 | 1018.6 |
| 20260502120546 | 25 | 0 | 4.8 | 19.3 | 0.00 | 0.00 | 0.00 | 42 | 1018.7 |
| 20260502115545 | 25 | 0 | 3.2 | 17.7 | 0.00 | 0.00 | 0.00 | 42 | 1018.7 |
| 20260502115045 | 25 | 0 | 1.6 | 14.5 | 0.00 | 0.00 | 0.00 | 43 | 1018.7 |
| 20260502114558 | 25 | 229 | 0.0 | 14.5 | 0.00 | 0.00 | 0.00 | 43 | 1018.9 |
| 20260502114045 | 24 | 190 | 0.0 | 16.1 | 0.00 | 0.00 | 0.00 | 44 | 1019.0 |
| 20260502113547 | 25 | 0 | 4.8 | 16.1 | 0.00 | 0.00 | 0.00 | 43 | 1019.1 |
| 20260502113057 | 25 | 0 | 0.0 | 8.0 | 0.00 | 0.00 | 0.00 | 43 | 1019.1 |
| 20260502112542 | 24 | 208 | 0.0 | 14.5 | 0.00 | 0.00 | 0.00 | 44 | 1019.1 |
| 20260502112045 | 24 | 0 | 1.6 | 17.7 | 0.00 | 0.00 | 0.00 | 44 | 1019.3 |
| 20260502111556 | 24 | 192 | 1.6 | 17.7 | 0.00 | 0.00 | 0.00 | 46 | 1019.4 |
| 20260502111045 | 24 | 0 | 1.6 | 17.7 | 0.00 | 0.00 | 0.00 | 45 | 1019.4 |
| 20260502110546 | 24 | 0 | 1.6 | 11.3 | 0.00 | 0.00 | 0.00 | 46 | 1019.3 |
| 20260502110101 | 24 | 0 | 0.0 | 24.1 | 0.00 | 0.00 | 0.00 | 43 | 1019.4 |
| 20260502105550 | 24 | 252 | 3.2 | 24.1 | 0.00 | 0.00 | 0.00 | 43 | 1019.4 |
| 20260502105045 | 24 | 238 | 4.8 | 17.7 | 0.00 | 0.00 | 0.00 | 43 | 1019.5 |
| 20260502104555 | 24 | 219 | 4.8 | 17.7 | 0.00 | 0.00 | 0.00 | 42 | 1019.6 |
| 20260502104045 | 24 | 0 | 3.2 | 14.5 | 0.00 | 0.00 | 0.00 | 44 | 1019.7 |
| 20260502103542 | 23 | 0 | 3.2 | 14.5 | 0.00 | 0.00 | 0.00 | 43 | 1019.8 |
| 20260502103101 | 23 | 241 | 4.8 | 17.7 | 0.00 | 0.00 | 0.00 | 42 | 1019.9 |
| 20260502102545 | 24 | 232 | 3.2 | 17.7 | 0.00 | 0.00 | 0.00 | 42 | 1019.9 |
| 20260502102045 | 24 | 0 | 0.0 | 22.5 | 0.00 | 0.00 | 0.00 | 41 | 1019.9 |
| 20260502101631 | 24 | 247 | 4.8 | 22.5 | 0.00 | 0.00 | 0.00 | 41 | 1019.9 |
| 20260502101045 | 24 | 245 | 4.8 | 17.7 | 0.00 | 0.00 | 0.00 | 42 | 1020.0 |
| 20260502100544 | 24 | 212 | 3.2 | 17.7 | 0.00 | 0.00 | 0.00 | 41 | 1020.0 |
| 20260502100116 | 24 | 0 | 0.0 | 12.9 | 0.00 | 0.00 | 0.00 | 40 | 1020.0 |
| 20260502091046 | 22 | 229 | 3.2 | 19.3 | 0.00 | 0.00 | 0.00 | 41 | 1020.1 |
| 20260502090545 | 22 | 198 | 6.4 | 19.3 | 0.00 | 0.00 | 0.00 | 41 | 1020.2 |
| 20260502080104 | 20 | 188 | 0.0 | 14.5 | 0.00 | 0.00 | 0.00 | 42 | 1020.2 |
| 20260502071045 | 18 | 0 | 4.8 | 16.1 | 0.00 | 0.00 | 0.00 | 45 | 1020.4 |
| 20260502070549 | 18 | 0 | 1.6 | 14.5 | 0.00 | 0.00 | 0.00 | 45 | 1020.5 |
| 20260502070055 | 18 | 0 | 0.0 | 12.9 | 0.00 | 0.00 | 0.00 | 47 | 1020.6 |
| 20260502065546 | 18 | 0 | 0.0 | 16.1 | 0.00 | 0.00 | 0.00 | 48 | 1020.5 |
| 20260502065045 | 17 | 0 | 4.8 | 16.1 | 0.00 | 0.00 | 0.00 | 47 | 1020.5 |
| 20260502064552 | 17 | 202 | 1.6 | 16.1 | 0.00 | 0.00 | 0.00 | 48 | 1020.5 |
| 20260502064047 | 17 | 0 | 1.6 | 11.3 | 0.00 | 0.00 | 0.00 | 49 | 1020.6 |
| 20260502063546 | 17 | 0 | 0.0 | 14.5 | 0.00 | 0.00 | 0.00 | 49 | 1020.4 |
| 20260502063054 | 16 | 0 | 0.0 | 14.5 | 0.00 | 0.00 | 0.00 | 50 | 1020.3 |
| 20260502062548 | 16 | 0 | 0.0 | 16.1 | 0.00 | 0.00 | 0.00 | 50 | 1020.3 |
| 20260502062044 | 16 | 0 | 1.6 | 16.1 | 0.00 | 0.00 | 0.00 | 51 | 1020.4 |
| 20260502061554 | 15 | 0 | 0.0 | 12.9 | 0.00 | 0.00 | 0.00 | 52 | 1020.5 |
| 20260502061043 | 15 | 0 | 0.0 | 11.3 | 0.00 | 0.00 | 0.00 | 53 | 1020.4 |
| 20260502060544 | 15 | 221 | 0.0 | 11.3 | 0.00 | 0.00 | 0.00 | 54 | 1020.5 |
| 20260502060054 | 15 | 0 | 0.0 | 4.8 | 0.00 | 0.00 | 0.00 | 55 | 1020.4 |
| 20260502055546 | 14 | 0 | 0.0 | 4.8 | 0.00 | 0.00 | 0.00 | 55 | 1020.4 |
| 20260502055045 | 14 | 0 | 0.0 | 3.2 | 0.00 | 0.00 | 0.00 | 55 | 1020.5 |
| 20260502054550 | 14 | 0 | 0.0 | 3.2 | 0.00 | 0.00 | 0.00 | 55 | 1020.5 |
| 20260502054045 | 14 | 0 | 0.0 | 9.7 | 0.00 | 0.00 | 0.00 | 55 | 1020.5 |
| 20260502053545 | 14 | 0 | 0.0 | 9.7 | 0.00 | 0.00 | 0.00 | 55 | 1020.5 |
| 20260502053109 | 13 | 0 | 0.0 | 4.8 | 0.00 | 0.00 | 0.00 | 55 | 1020.5 |
| 20260502052545 | 13 | 0 | 0.0 | 1.6 | 0.00 | 0.00 | 0.00 | 55 | 1020.4 |
| 20260502052045 | 13 | 0 | 0.0 | 8.0 | 0.00 | 0.00 | 0.00 | 55 | 1020.4 |
| 20260502051551 | 13 | 0 | 0.0 | 8.0 | 0.00 | 0.00 | 0.00 | 54 | 1020.5 |
| 20260502051044 | 13 | 0 | 0.0 | 12.9 | 0.00 | 0.00 | 0.00 | 54 | 1020.5 |
| 20260502050545 | 13 | 0 | 0.0 | 12.9 | 0.00 | 0.00 | 0.00 | 54 | 1020.4 |
| 20260502050049 | 13 | 0 | 0.0 | 14.5 | 0.00 | 0.00 | 0.00 | 54 | 1020.4 |
| 20260502045547 | 13 | 164 | 0.0 | 14.5 | 0.00 | 0.00 | 0.00 | 55 | 1020.6 |
| 20260502045043 | 13 | 0 | 0.0 | 6.4 | 0.00 | 0.00 | 0.00 | 56 | 1020.5 |
| 20260502044552 | 13 | 0 | 0.0 | 6.4 | 0.00 | 0.00 | 0.00 | 56 | 1020.6 |
| 20260502044045 | 13 | 0 | 0.0 | 1.6 | 0.00 | 0.00 | 0.00 | 57 | 1020.6 |
| 20260502043545 | 13 | 0 | 0.0 | 8.0 | 0.00 | 0.00 | 0.00 | 57 | 1020.7 |
| 20260502043101 | 12 | 0 | 0.0 | 8.0 | 0.00 | 0.00 | 0.00 | 57 | 1020.8 |
| 20260502042546 | 12 | 0 | 0.0 | 0.0 | 0.00 | 0.00 | 0.00 | 57 | 1020.7 |
| 20260502042046 | 13 | 0 | 0.0 | 1.6 | 0.00 | 0.00 | 0.00 | 57 | 1020.8 |
| 20260502041549 | 13 | 0 | 0.0 | 1.6 | 0.00 | 0.00 | 0.00 | 56 | 1020.9 |
| 20260502041045 | 13 | 0 | 0.0 | 4.8 | 0.00 | 0.00 | 0.00 | 55 | 1020.8 |
| 20260502040545 | 13 | 0 | 0.0 | 4.8 | 0.00 | 0.00 | 0.00 | 55 | 1021.0 |
| 20260502040056 | 13 | 0 | 0.0 | 4.8 | 0.00 | 0.00 | 0.00 | 54 | 1020.9 |
| 20260502035545 | 13 | 0 | 0.0 | 1.6 | 0.00 | 0.00 | 0.00 | 54 | 1020.9 |
| 20260502035050 | 13 | 0 | 0.0 | 1.6 | 0.00 | 0.00 | 0.00 | 53 | 1020.9 |
| 20260502034554 | 13 | 0 | 0.0 | 1.6 | 0.00 | 0.00 | 0.00 | 53 | 1020.9 |
| 20260502034045 | 14 | 0 | 0.0 | 1.6 | 0.00 | 0.00 | 0.00 | 52 | 1021.0 |
| 20260502033544 | 14 | 0 | 0.0 | 0.0 | 0.00 | 0.00 | 0.00 | 52 | 1021.0 |
| 20260502033101 | 14 | 0 | 0.0 | 0.0 | 0.00 | 0.00 | 0.00 | 52 | 1021.1 |
| 20260502032544 | 14 | 0 | 0.0 | 1.6 | 0.00 | 0.00 | 0.00 | 51 | 1021.0 |
| 20260502032045 | 14 | 0 | 0.0 | 3.2 | 0.00 | 0.00 | 0.00 | 51 | 1021.1 |
| 20260502031553 | 14 | 0 | 0.0 | 3.2 | 0.00 | 0.00 | 0.00 | 51 | 1021.1 |
| 20260502031042 | 14 | 0 | 0.0 | 1.6 | 0.00 | 0.00 | 0.00 | 51 | 1021.0 |
| 20260502030545 | 14 | 0 | 0.0 | 4.8 | 0.00 | 0.00 | 0.00 | 52 | 1021.1 |
| 20260502030100 | 14 | 0 | 0.0 | 4.8 | 0.00 | 0.00 | 0.00 | 51 | 1021.2 |
| 20260502025545 | 15 | 0 | 0.0 | 4.8 | 0.00 | 0.00 | 0.00 | 51 | 1021.3 |
| 20260502025045 | 15 | 0 | 0.0 | 4.8 | 0.00 | 0.00 | 0.00 | 51 | 1021.3 |
| 20260502024549 | 15 | 0 | 0.0 | 1.6 | 0.00 | 0.00 | 0.00 | 51 | 1021.3 |
| 20260502024047 | 15 | 0 | 0.0 | 1.6 | 0.00 | 0.00 | 0.00 | 51 | 1021.4 |
| 20260502023548 | 15 | 189 | 0.0 | 3.2 | 0.00 | 0.00 | 0.00 | 51 | 1021.4 |
| 20260502023109 | 15 | 0 | 0.0 | 3.2 | 0.00 | 0.00 | 0.00 | 51 | 1021.4 |
| 20260502022542 | 15 | 0 | 0.0 | 3.2 | 0.00 | 0.00 | 0.00 | 51 | 1021.5 |
| 20260502022044 | 15 | 0 | 0.0 | 4.8 | 0.00 | 0.00 | 0.00 | 51 | 1021.4 |
| 20260502021549 | 15 | 0 | 0.0 | 6.4 | 0.00 | 0.00 | 0.00 | 51 | 1021.5 |
| 20260502021045 | 15 | 0 | 0.0 | 6.4 | 0.00 | 0.00 | 0.00 | 51 | 1021.5 |
| 20260502020543 | 15 | 0 | 0.0 | 0.0 | 0.00 | 0.00 | 0.00 | 51 | 1021.6 |
| 20260502020052 | 15 | 0 | 0.0 | 0.0 | 0.00 | 0.00 | 0.00 | 51 | 1021.7 |
| 20260502015545 | 15 | 0 | 0.0 | 0.0 | 0.00 | 0.00 | 0.00 | 51 | 1021.7 |
| 20260502015041 | 15 | 0 | 0.0 | 0.0 | 0.00 | 0.00 | 0.00 | 52 | 1021.7 |
| 20260502014549 | 15 | 0 | 0.0 | 0.0 | 0.00 | 0.00 | 0.00 | 52 | 1021.7 |
| 20260502014048 | 15 | 0 | 0.0 | 0.0 | 0.00 | 0.00 | 0.00 | 52 | 1021.7 |
| 20260502013546 | 14 | 0 | 0.0 | 3.2 | 0.00 | 0.00 | 0.00 | 52 | 1021.9 |